Regional Weather Roundup
Issued by NWS Binghamton, NY

Home | Current Version | Previous Version | Text Only | Print | Product List | Glossary On
Versions: 1 2 3 4 5 6 7 8 9 10 11 12 13 14 15 16 17 18 19 20 21 22 23 24 25 26 27 28 29 30 31 32 33 34 35 36 37 38 39 40 41 42 43 44 45 46 47 48 49 50
000
ASUS41 KBGM 270510
RWRBGM
RWRBGM
BINGHAMTON REGIONAL WEATHER ROUNDUP
NATIONAL WEATHER SERVICE BINGHAMTON NY
100 AM EDT FRI MAR 27 2015

Note: "fair" indicates few or no clouds below 12,000 feet with no
significant weather and/or obstructions to visibility.

* = Station(s) that does not report precipitation, such as rain,
snow, etc, also no thunder or fog.

!NYZ009-015>018-022>025-036-037-044>046-055>057-062-270600
...CENTRAL NEW YORK...

CITY           SKY/WX    TMP DP  RH WIND       PRES   REMARKS
BINGHAMTON     CLOUDY    32  30  92 NW9       29.73F WCI  24
CORTLAND       CLOUDY    34  34 100 CALM      29.77F
DANSVILLE      CLOUDY    34  31  88 CALM      29.82S
ELMIRA         CLOUDY    34  33  96 SW8       29.79S WCI  27
ITHACA         CLOUDY    33  32  96 CALM      29.78F FOG
MONTICELLO     CLOUDY    36  36 100 NW14G20   29.71S WCI  27
NORWICH        CLOUDY    34  34 100 CALM        N/A
ONEONTA        CLOUDY    32  32 100 CALM      29.71F
PENN YAN       CLOUDY    35  31  85 W5        29.79S WCI  31
ROME           CLOUDY    31  31 100 W6        29.79S FOG     WCI  25
SIDNEY         CLOUDY    34  34 100 W3        29.76F FOG
SYRACUSE       CLOUDY    34  33  96 W5        29.78F WCI  30
$$

!PAZ038>040-043-044-047-048-072-270600
...NORTHEAST PENNSYLVANIA...

CITY           SKY/WX    TMP DP  RH WIND       PRES   REMARKS
HAZLETON       CLOUDY    36  36 100 NW14G20   29.73F WCI  27
SCRANTON       CLOUDY    39  34  82 N10       29.75F WCI  32
TOWANDA*       MOCLDY    37  36  93 CALM      29.80S
$$
&&
KEY
WCI = WIND CHILL INDEX
VSB = VISIBILITY
HX  = HEAT INDEX
$$


USA.gov is the U.S. government's official web portal to all federal, state and local government web resources and services.